EW7351 Weather Reports


time (UTC)temp
F
wind
direction
speed
knots
gust
knots
rain 1hr
in
rain 24hr
in
rain mn
in
humidity
%
barometer
mb
20240222095615 65 189 6.1 12.2 0.00 0.00 0.00 78 1007.8
20240222095114 65 191 6.1 13.9 0.00 0.00 0.00 77 1008.1
20240222094545 65 259 6.1 13.9 0.00 0.00 0.00 78 1008.2
20240222094044 65 181 6.1 11.3 0.00 0.00 0.00 77 1008.3
20240222093540 65 168 6.1 12.2 0.00 0.00 0.00 77 1008.3
20240222093037 65 176 6.1 12.2 0.00 0.00 0.00 77 1008.5
20240222092806 65 245 5.2 13.9 0.00 0.00 0.00 77 1008.6
20240222092011 65 215 5.2 13.0 0.00 0.00 0.00 77 1008.7
20240222091948 65 156 6.1 13.0 0.00 0.00 0.00 77 1008.7
20240222091006 65 247 6.1 13.9 0.00 0.00 0.00 77 1008.8
20240222090435 65 222 6.1 13.9 0.00 0.00 0.00 77 1008.9
20240222090118 65 218 6.1 13.9 0.00 0.00 0.00 77 1008.9
20240222085357 65 243 6.1 13.9 0.00 0.00 0.00 77 1008.9
20240222084859 65 154 6.1 12.2 0.00 0.00 0.00 77 1009.0
20240222084332 65 176 7.0 12.2 0.00 0.00 0.00 77 1009.1
20240222083808 65 227 7.0 13.9 0.00 0.00 0.00 77 1009.2
20240222083233 65 240 6.1 12.2 0.00 0.00 0.00 77 1009.1
20240222082733 65 215 7.0 13.0 0.00 0.00 0.00 77 1009.2
20240222082223 65 165 7.0 14.8 0.00 0.00 0.00 77 1009.3
20240222081721 65 148 7.0 14.8 0.00 0.00 0.00 77 1009.4
20240222081154 65 226 6.1 13.0 0.00 0.00 0.00 77 1009.5
20240222080650 65 240 5.2 13.0 0.00 0.00 0.00 77 1009.5
20240222080156 65 236 6.1 13.0 0.00 0.00 0.00 76 1009.5
20240222075621 65 205 7.0 13.9 0.00 0.00 0.00 76 1009.8
20240222075118 65 181 6.1 13.9 0.00 0.00 0.00 76 1009.7
20240222074554 65 253 7.0 16.5 0.00 0.00 0.00 76 1009.8
20240222074031 65 209 7.8 16.5 0.00 0.00 0.00 76 1009.9
20240222073532 65 223 7.0 15.6 0.00 0.00 0.00 76 1009.9
20240222073248 65 237 6.1 12.2 0.00 0.00 0.00 76 1009.7
20240222072740 65 181 6.1 12.2 0.00 0.00 0.00 76 1009.8
20240222071955 65 191 7.0 12.2 0.00 0.00 0.00 76 1009.8
20240222071424 65 168 7.8 11.3 0.00 0.00 0.00 76 1009.7
20240222070904 65 155 7.8 17.4 0.00 0.00 0.00 75 1009.7
20240222070353 65 204 7.0 17.4 0.00 0.00 0.00 76 1009.7
20240222065851 65 224 7.0 15.6 0.00 0.00 0.00 75 1009.7
20240222065349 65 216 7.0 16.5 0.00 0.00 0.00 75 1009.7
20240222065103 65 244 7.0 16.5 0.00 0.00 0.00 75 1009.8
20240222064345 65 238 7.8 21.7 0.00 0.00 0.00 75 1009.7
20240222063845 65 244 8.7 21.7 0.00 0.00 0.00 75 1009.6
20240222063554 65 167 8.7 24.3 0.00 0.00 0.00 75 1009.6
20240222062800 65 155 7.8 18.2 0.00 0.00 0.00 75 1009.8
20240222062242 65 249 8.7 18.2 0.00 0.00 0.00 75 1009.7
20240222062223 65 163 8.7 18.2 0.00 0.00 0.00 75 1009.8
20240222061229 65 178 8.7 18.2 0.00 0.00 0.00 75 1009.8
20240222060729 65 148 7.8 16.5 0.00 0.00 0.00 75 1009.9
20240222060228 65 130 8.7 17.4 0.00 0.00 0.00 75 1009.8
20240222055728 65 116 8.7 17.4 0.00 0.00 0.00 75 1009.8
20240222055209 65 269 7.8 16.5 0.00 0.00 0.00 75 1009.9
20240222054637 65 245 7.0 16.5 0.00 0.00 0.00 75 1010.0
20240222054112 65 208 8.7 18.2 0.00 0.00 0.00 75 1010.0
20240222054054 65 143 7.8 18.2 0.00 0.00 0.00 75 1010.0
20240222053101 65 179 7.8 17.4 0.00 0.00 0.00 74 1009.8
20240222052749 66 229 7.8 17.4 0.00 0.00 0.00 74 1009.8
20240222052009 66 159 8.7 17.4 0.00 0.00 0.00 74 1009.9
20240222051436 66 144 9.6 21.7 0.00 0.00 0.00 73 1010.0
20240222050932 66 182 8.7 21.7 0.00 0.00 0.00 73 1010.0
20240222050413 66 221 7.8 20.0 0.00 0.00 0.00 73 1009.9
20240222045841 66 163 7.0 17.4 0.00 0.00 0.00 73 1010.0
20240222045600 67 235 6.1 17.4 0.00 0.00 0.00 72 1010.0
20240222044816 67 236 6.1 13.0 0.00 0.00 0.00 72 1010.1
20240222044244 67 242 6.1 13.0 0.00 0.00 0.00 72 1010.1
20240222043742 67 173 5.2 14.8 0.00 0.00 0.00 72 1010.1
20240222043217 67 223 7.0 14.8 0.00 0.00 0.00 71 1010.1
20240222042648 67 210 7.0 14.8 0.00 0.00 0.00 71 1010.0
20240222042146 67 173 6.1 14.8 0.00 0.00 0.00 71 1010.0
20240222041615 67 159 7.0 13.9 0.00 0.00 0.00 70 1010.0
20240222041051 68 276 7.0 15.6 0.00 0.00 0.00 70 1009.9
20240222040530 68 214 6.1 15.6 0.00 0.00 0.00 70 1010.0
20240222035956 68 233 5.2 12.2 0.00 0.00 0.00 69 1010.0
20240222035454 68 227 5.2 9.6 0.00 0.00 0.00 69 1009.9
20240222034927 68 207 7.0 13.0 0.00 0.00 0.00 68 1009.9
20240222034406 68 125 6.1 11.3 0.00 0.00 0.00 68 1009.8
20240222034052 68 213 5.2 11.3 0.00 0.00 0.00 68 1009.8
20240222033807 68 234 5.2 13.9 0.00 0.00 0.00 68 1009.8
20240222032824 68 149 5.2 13.9 0.00 0.00 0.00 67 1009.7
20240222032539 68 148 5.2 12.2 0.00 0.00 0.00 67 1009.8
20240222031812 68 190 4.3 12.2 0.00 0.00 0.00 66 1009.8
20240222031316 68 157 4.3 11.3 0.00 0.00 0.00 66 1009.8
20240222030748 69 137 5.2 10.4 0.00 0.00 0.00 65 1009.9
20240222030220 69 214 5.2 10.4 0.00 0.00 0.00 65 1009.9
20240222025953 69 179 5.2 11.3 0.00 0.00 0.00 64 1010.0
20240222025155 69 99 3.5 11.3 0.00 0.00 0.00 64 1010.1
20240222024624 69 233 2.6 7.8 0.00 0.00 0.00 64 1010.2
20240222024120 69 227 3.5 7.8 0.00 0.00 0.00 63 1010.2
20240222023844 69 174 3.5 9.6 0.00 0.00 0.00 63 1010.2
20240222023117 69 234 3.5 8.7 0.00 0.00 0.00 62 1010.2
20240222022823 70 212 3.5 9.6 0.00 0.00 0.00 62 1010.3
20240222022102 70 144 4.3 9.6 0.00 0.00 0.00 61 1010.3
20240222021605 70 218 5.2 8.7 0.00 0.00 0.00 61 1010.3
20240222021057 70 200 5.2 8.7 0.00 0.00 0.00 60 1010.2
20240222020605 70 203 5.2 12.2 0.00 0.00 0.00 60 1010.2
20240222020312 71 179 5.2 12.2 0.00 0.00 0.00 59 1010.2
20240222015550 71 158 5.2 11.3 0.00 0.00 0.00 59 1010.0
20240222015030 71 209 6.1 11.3 0.00 0.00 0.00 58 1010.0
20240222014507 71 207 6.1 14.8 0.00 0.00 0.00 58 1010.0
20240222014007 71 189 6.1 14.8 0.00 0.00 0.00 57 1010.0
20240222013504 71 189 7.0 14.8 0.00 0.00 0.00 57 1009.9
20240222013240 72 241 7.0 14.8 0.00 0.00 0.00 57 1009.9
20240222012722 72 162 7.0 16.5 0.00 0.00 0.00 56 1010.0
20240222011920 72 168 7.8 16.5 0.00 0.00 0.00 56 1010.0
20240222011643 72 220 7.8 15.6 0.00 0.00 0.00 56 1009.8
20240222010906 72 124 7.0 15.6 0.00 0.00 0.00 56 1009.7
20240222010407 72 212 7.0 14.8 0.00 0.00 0.00 56 1009.8
20240222010119 73 173 7.8 14.8 0.00 0.00 0.00 56 1009.7
20240222005401 73 134 6.1 14.8 0.00 0.00 0.00 56 1009.9
20240222005055 73 230 6.1 15.6 0.00 0.00 0.00 55 1010.0
20240222004338 73 216 6.1 15.6 0.00 0.00 0.00 55 1009.9
20240222003802 73 159 7.8 15.6 0.00 0.00 0.00 54 1009.7
20240222003259 74 234 7.0 13.9 0.00 0.00 0.00 54 1009.9
20240222002743 74 156 6.1 13.9 0.00 0.00 0.00 53 1009.9
20240222002210 74 181 6.1 13.9 0.00 0.00 0.00 53 1010.0
20240222001906 74 225 7.0 13.9 0.00 0.00 0.00 52 1009.8
20240222001140 74 237 8.7 15.6 0.00 0.00 0.00 51 1009.4
20240222000615 74 124 7.8 15.6 0.00 0.00 0.00 50 1009.3
20240222000046 75 165 7.8 14.8 0.00 0.00 0.00 50 1009.4
20240221235530 75 168 7.8 18.2 0.00 0.00 0.00 50 1009.5
20240221234952 75 237 7.8 18.2 0.00 0.00 0.00 50 1009.7
20240221234449 75 205 8.7 16.5 0.00 0.00 0.00 49 1009.8
20240221234145 76 198 8.7 16.5 0.00 0.00 0.00 48 1009.9
20240221233417 76 191 7.8 15.6 0.00 0.00 0.00 48 1010.0
20240221232920 76 117 8.7 14.8 0.00 0.00 0.00 48 1010.0
20240221232346 76 166 7.8 14.8 0.00 0.00 0.00 47 1010.0
20240221231849 76 226 7.8 18.2 0.00 0.00 0.00 47 1009.9
20240221231316 76 155 9.6 17.4 0.00 0.00 0.00 47 1009.9
20240221230812 76 264 10.4 20.0 0.00 0.00 0.00 46 1009.9
20240221230251 77 248 10.4 20.0 0.00 0.00 0.00 46 1009.9
20240221225721 77 161 8.7 18.2 0.00 0.00 0.00 45 1010.0
20240221225156 78 252 7.8 16.5 0.00 0.00 0.00 46 1010.1
20240221224636 78 159 8.7 20.0 0.00 0.00 0.00 45 1010.1
20240221224143 78 155 8.7 20.0 0.00 0.00 0.00 44 1010.1
20240221223608 78 181 8.7 17.4 0.00 0.00 0.00 45 1010.3
20240221223109 78 281 7.8 17.4 0.00 0.00 0.00 45 1010.4
20240221222547 78 148 8.7 13.9 0.00 0.00 0.00 44 1010.4
20240221222046 78 188 10.4 19.1 0.00 0.00 0.00 44 1010.5
20240221221544 79 208 9.6 19.1 0.00 0.00 0.00 44 1010.6
20240221221041 79 171 8.7 18.2 0.00 0.00 0.00 43 1010.5
20240221221037 79 112 8.7 15.6 0.00 0.00 0.00 43 1010.5
20240221220017 79 225 8.7 15.6 0.00 0.00 0.00 43 1010.7
20240221215725 79 150 8.7 13.0 0.00 0.00 0.00 44 1011.0
20240221215208 79 195 7.8 13.9 0.00 0.00 0.00 43 1011.1
20240221214441 79 160 7.8 18.2 0.00 0.00 0.00 44 1011.1
20240221213919 79 163 9.6 18.2 0.00 0.00 0.00 44 1011.2
20240221213354 79 156 10.4 21.7 0.00 0.00 0.00 43 1011.3
20240221212900 79 251 10.4 21.7 0.00 0.00 0.00 43 1011.3
20240221212336 79 146 10.4 20.9 0.00 0.00 0.00 42 1011.5
20240221211835 79 251 10.4 20.9 0.00 0.00 0.00 43 1011.5
20240221211310 79 235 9.6 20.0 0.00 0.00 0.00 43 1011.5
20240221210749 79 233 8.7 19.1 0.00 0.00 0.00 43 1011.7
20240221210226 79 248 8.7 17.4 0.00 0.00 0.00 43 1011.9
20240221205726 78 226 8.7 18.2 0.00 0.00 0.00 44 1012.2
20240221205223 79 147 7.8 18.2 0.00 0.00 0.00 44 1012.3
20240221204733 79 195 7.8 15.6 0.00 0.00 0.00 44 1012.5
20240221204420 79 242 7.0 15.6 0.00 0.00 0.00 44 1012.6
20240221203856 79 226 7.0 15.6 0.00 0.00 0.00 45 1012.7
20240221203110 79 209 7.8 17.4 0.00 0.00 0.00 45 1012.8
20240221202607 78 202 9.6 17.4 0.00 0.00 0.00 45 1012.9
20240221202059 78 173 7.8 16.5 0.00 0.00 0.00 46 1013.1
20240221201753 78 117 7.0 13.9 0.00 0.00 0.00 46 1013.2
20240221201034 78 236 7.8 15.6 0.00 0.00 0.00 46 1013.3
20240221200532 78 201 7.8 15.6 0.00 0.00 0.00 47 1013.4
20240221200013 78 221 8.7 16.5 0.00 0.00 0.00 47 1013.5
20240221195715 77 213 8.7 16.5 0.00 0.00 0.00 47 1013.6
20240221194950 77 154 8.7 19.1 0.00 0.00 0.00 48 1013.6
20240221194447 77 167 8.7 19.1 0.00 0.00 0.00 48 1013.7
20240221193947 77 131 8.7 15.6 0.00 0.00 0.00 48 1013.8
20240221193447 77 199 8.7 16.5 0.00 0.00 0.00 48 1013.9
20240221193005 77 249 7.8 16.5 0.00 0.00 0.00 48 1014.1
20240221192644 77 159 8.7 15.6 0.00 0.00 0.00 49 1014.2
20240221191856 77 240 7.8 16.5 0.00 0.00 0.00 50 1014.3
20240221191351 77 250 8.7 14.8 0.00 0.00 0.00 50 1014.5
20240221190852 76 238 8.7 17.4 0.00 0.00 0.00 50 1014.7
20240221190554 76 261 7.8 17.4 0.00 0.00 0.00 50 1014.9
20240221185801 76 246 8.7 15.6 0.00 0.00 0.00 52 1015.0
20240221185506 76 158 7.8 15.6 0.00 0.00 0.00 53 1015.2
20240221185002 76 240 7.8 13.9 0.00 0.00 0.00 52 1015.3
20240221184239 75 258 7.8 15.6 0.00 0.00 0.00 54 1015.4
20240221183721 75 151 8.7 15.6 0.00 0.00 0.00 54 1015.6
20240221183220 75 216 7.8 16.5 0.00 0.00 0.00 54 1015.8
20240221182700 74 178 7.8 16.5 0.00 0.00 0.00 55 1016.0
20240221182350 74 129 8.7 19.1 0.00 0.00 0.00 55 1016.1
20240221181634 74 205 9.6 19.1 0.00 0.00 0.00 57 1016.2
20240221181113 73 207 8.7 13.9 0.00 0.00 0.00 57 1016.3
20240221180614 73 224 8.7 16.5 0.00 0.00 0.00 56 1016.4
20240221180049 73 166 8.7 15.6 0.00 0.00 0.00 57 1016.6
20240221175556 73 216 8.7 17.4 0.00 0.00 0.00 57 1016.6
20240221175044 73 200 7.8 17.4 0.00 0.00 0.00 58 1016.6
20240221174547 73 197 7.8 13.9 0.00 0.00 0.00 59 1016.7
20240221174038 72 227 8.7 17.4 0.00 0.00 0.00 60 1016.8
20240221173714 72 225 8.7 17.4 0.00 0.00 0.00 60 1016.8
20240221172946 71 233 7.8 16.5 0.00 0.00 0.00 60 1016.9
20240221172426 71 230 7.8 17.4 0.00 0.00 0.00 61 1017.0
20240221171851 71 174 8.7 18.2 0.00 0.00 0.00 62 1017.1
20240221171547 70 216 7.8 14.8 0.00 0.00 0.00 62 1017.2
20240221171432 71 271 7.8 14.8 0.00 0.00 0.00 62 1017.1
20240221170321 70 156 7.8 13.9 0.00 0.00 0.00 63 1017.3
20240221165817 70 248 7.8 13.9 0.00 0.00 0.00 64 1017.3
20240221165330 70 215 7.0 15.6 0.00 0.00 0.00 65 1017.4
20240221165016 69 174 7.8 15.6 0.00 0.00 0.00 65 1017.5
20240221164225 69 150 9.6 16.5 0.00 0.00 0.00 66 1017.4
20240221163711 68 240 8.7 16.5 0.00 0.00 0.00 68 1017.5
20240221163214 68 252 7.8 16.5 0.00 0.00 0.00 67 1017.5
20240221162645 68 229 8.7 20.9 0.00 0.00 0.00 70 1017.5
20240221162150 67 276 8.7 20.9 0.00 0.00 0.00 70 1017.6
20240221161627 67 141 8.7 15.6 0.00 0.00 0.00 71 1017.6
20240221161127 67 175 7.8 14.8 0.00 0.00 0.00 72 1017.7
20240221160627 67 148 7.8 13.0 0.00 0.00 0.00 72 1017.8
20240221160135 66 229 8.7 16.5 0.00 0.00 0.00 73 1017.9
20240221155625 65 266 8.7 16.5 0.00 0.00 0.00 74 1017.9
20240221155124 65 241 7.8 14.8 0.00 0.00 0.00 75 1018.0
20240221154601 65 179 7.0 13.9 0.00 0.00 0.00 77 1018.2
20240221154039 64 218 7.8 14.8 0.00 0.00 0.00 78 1018.2
20240221153503 64 185 7.8 14.8 0.00 0.00 0.00 77 1018.2
20240221153000 64 228 7.0 14.8 0.00 0.00 0.00 78 1018.2
20240221152458 63 253 7.8 14.8 0.00 0.00 0.00 79 1018.2
20240221151951 63 159 7.8 14.8 0.00 0.00 0.00 79 1018.0
20240221151449 63 241 7.0 15.6 0.00 0.00 0.00 80 1018.0
20240221150946 63 251 7.0 15.6 0.00 0.00 0.00 80 1018.0
20240221150444 63 160 7.0 13.9 0.00 0.00 0.00 82 1018.0
20240221145922 62 200 7.8 15.6 0.00 0.00 0.00 82 1018.2
20240221145349 62 229 7.0 15.6 0.00 0.00 0.00 82 1018.0
20240221144845 62 188 7.0 14.8 0.00 0.00 0.00 83 1018.0
20240221144549 62 183 7.0 11.3 0.00 0.00 0.00 84 1018.0
20240221144018 62 205 7.0 15.6 0.00 0.00 0.00 84 1018.0
20240221143520 61 221 6.1 15.6 0.00 0.00 0.00 84 1018.0
20240221142733 61 243 7.0 13.9 0.00 0.00 0.00 85 1018.2
20240221142155 61 220 7.0 13.9 0.00 0.00 0.00 85 1018.0
20240221141401 61 210 6.1 12.2 0.00 0.00 0.00 86 1018.2
20240221140635 61 215 6.1 12.2 0.00 0.00 0.00 86 1017.9
20240221140110 60 141 5.2 10.4 0.00 0.00 0.00 86 1017.9
20240221135541 60 175 6.1 11.3 0.00 0.00 0.00 86 1017.9
20240221135045 60 222 5.2 11.3 0.00 0.00 0.00 86 1017.8
20240221134733 60 185 5.2 11.3 0.00 0.00 0.00 87 1017.8
20240221134016 60 212 5.2 11.3 0.00 0.00 0.00 87 1017.9
20240221133450 60 271 4.3 9.6 0.00 0.00 0.00 87 1017.9
20240221132919 59 161 5.2 8.7 0.00 0.00 0.00 87 1018.0
20240221132419 59 217 4.3 11.3 0.00 0.00 0.00 87 1017.9
20240221131901 59 138 4.3 10.4 0.00 0.00 0.00 87 1017.8
20240221131348 59 228 4.3 9.6 0.00 0.00 0.00 87 1017.8
20240221130845 59 242 4.3 9.6 0.00 0.00 0.00 87 1017.8
20240221130320 59 219 4.3 10.4 0.00 0.00 0.00 86 1017.8
20240221130013 59 127 5.2 10.4 0.00 0.00 0.00 87 1017.8
20240221125249 59 231 4.3 10.4 0.00 0.00 0.00 87 1017.8
20240221124950 59 224 5.2 9.6 0.00 0.00 0.00 87 1017.8
20240221124444 59 238 6.1 11.3 0.00 0.00 0.00 87 1017.8
20240221123653 59 217 6.1 11.3 0.00 0.00 0.00 87 1017.8
20240221123409 59 115 4.3 11.3 0.00 0.00 0.00 87 1017.7
20240221122630 59 209 4.3 9.6 0.00 0.00 0.00 87 1017.7
20240221122324 59 206 5.2 9.6 0.00 0.00 0.00 87 1017.7
20240221121531 59 203 5.2 10.4 0.00 0.00 0.00 87 1017.6
20240221121027 59 134 5.2 12.2 0.00 0.00 0.00 87 1017.6
20240221120459 59 143 6.1 12.2 0.00 0.00 0.00 87 1017.5
20240221120006 59 248 7.0 12.2 0.00 0.00 0.00 87 1017.5
20240221115434 59 165 6.1 12.2 0.00 0.00 0.00 87 1017.5
20240221114929 59 228 5.2 10.4 0.00 0.00 0.00 87 1017.5
20240221114427 58 237 5.2 10.4 0.00 0.00 0.00 87 1017.4
20240221114127 58 141 5.2 9.6 0.00 0.00 0.00 87 1017.3
20240221113334 58 205 4.3 8.7 0.00 0.00 0.00 87 1017.3
20240221112829 58 222 3.5 7.8 0.00 0.00 0.00 87 1017.3
20240221112310 58 238 3.5 7.0 0.00 0.00 0.00 86 1017.3
20240221112226 58 181 3.5 8.7 0.00 0.00 0.00 86 1017.3
20240221111237 58 240 3.5 8.7 0.00 0.00 0.00 86 1017.2
20240221110738 58 203 4.3 8.7 0.00 0.00 0.00 86 1017.3
20240221110217 58 179 3.5 8.7 0.00 0.00 0.00 86 1017.2
20240221105721 58 160 3.5 8.7 0.00 0.00 0.00 85 1017.2
20240221105151 58 174 4.3 8.7 0.00 0.00 0.00 85 1017.1
20240221104650 58 127 4.3 8.7 0.00 0.00 0.00 85 1017.1
20240221104412 58 142 3.5 8.7 0.00 0.00 0.00 85 1017.1
20240221103627 58 231 2.6 7.0 0.00 0.00 0.00 85 1017.2
20240221103105 58 140 2.6 6.1 0.00 0.00 0.00 85 1017.2
20240221102607 58 164 2.6 6.1 0.00 0.00 0.00 84 1017.3
20240221102044 59 209 2.6 6.1 0.00 0.00 0.00 84 1017.3
20240221101521 59 229 2.6 7.0 0.00 0.00 0.00 84 1017.2
20240221101024 59 108 2.6 6.1 0.00 0.00 0.00 84 1017.3
20240221100502 59 221 2.6 6.1 0.00 0.00 0.00 84 1017.4
20240221095932 59 166 2.6 7.0 0.00 0.00 0.00 83 1017.4